Temp
87 96 103 100 85 89 82 85 91 87 85 86 87 82 75 81 77 67 93 96 98 96 91 89 81 81 82 81 80 80 80 80 80 80 80 80 80 80 80 80 80 81 81 81 81 80 80 80 80
103 105 102 96 85 75 74 89 85 87 85 86 85 85 80 71 83 84 87 95 95 92 90 88 80 80 80 80 80 79 80 80 80 80 80 80 80 80 80 80 80 80 80 80 80 79 79 79 79
96 105 94 90 89 80 81 89 88 88 87 88 87 92 89 84 87 85 91 93 95 93 93 85 80 80 80 80 80 79 79 79 80 80 80 79 79 79 79 79 80 80 80 80 79 79 78 79 78
103 103 99 88 83 87 89 90 91 88 89 90 91 86 91 95 92 95 94 96 96 96 94 82 80 80 80 80 80 79 79 79 79 79 79 79 79 78 78 79 79 79 79 79 78 78 77 78 78
104 99 88 87 85 89 92 94 92 88 89 91 92 87 87 93 98 97 96 97 96 98 92 88 80 80 80 80 80 79 79 79 79 79 79 79 78 78 78 78 78 78 78 78 78 77 77 76 77
95 98 85 82 85 89 92 95 92 92 92 93 90 91 89 96 95 96 98 97 101 97 95 88 81 80 80 80 79 79 79 78 78 78 78 78 78 78 78 78 78 78 77 77 77 76 76 76 76
92 92 86 87 84 87 90 97 92 91 92 93 96 89 91 94 98 100 100 101 99 100 95 93 91 84 80 79 79 78 78 78 78 77 77 78 78 78 78 77 77 77 76 76 76 76 76 76 76
99 96 87 89 85 85 94 94 96 94 93 101 99 87 86 95 99 101 102 101 101 100 98 94 91 91 89 87 78 78 78 77 77 77 77 77 78 78 78 76 76 76 76 76 76 76 76 76 76
102 89 85 85 87 89 96 93 99 100 96 97 98 98 99 100 100 99 97 98 100 100 92 96 95 93 93 89 83 79 78 78 77 78 78 79 92 89 87 76 76 76 76 76 76 76 77 76 79
94 89 88 95 94 93 96 95 96 94 94 94 96 100 101 98 97 96 95 95 97 98 96 99 94 97 96 93 89 89 88 90 89 89 88 92 86 87 89 83 77 76 77 78 79 79 78 83 86
96 89 94 94 96 97 96 95 98 93 90 96 93 97 98 95 95 96 97 98 98 99 99 98 93 95 95 94 93 92 91 89 89 88 88 85 88 87 90 90 90 87 85 88 87 86 86 82 83
89 94 94 96 96 95 94 98 94 95 97 100 102 100 98 94 95 96 97 98 99 98 97 96 94 93 92 94 93 93 93 92 91 88 87 87 88 86 85 86 86 85 87 84 84 84 81 80 80
91 93 95 96 96 96 96 94 94 96 101 103 103 101 98 96 96 98 99 100 99 95 94 93 91 89 89 89 89 91 91 91 89 90 87 86 85 82 84 84 85 85 85 83 81 81 79 78 79
95 93 94 96 95 96 93 94 94 97 101 100 99 99 100 98 98 98 98 97 95 91 90 88 86 83 85 84 85 87 86 85 88 88 85 85 83 81 82 82 83 83 82 80 79 79 78 78 78
94 88 93 94 94 92 94 88 89 97 98 96 98 100 100 99 100 98 96 87 81 86 81 79 78 78 77 79 82 83 83 89 87 86 84 83 82 80 78 81 82 81 78 77 78 77 78 76 76
89 90 83 92 91 92 91 82 91 96 96 94 97 98 97 99 98 81 73 72 70 71 69 72 75 72 71 71 74 78 79 81 83 83 83 81 79 80 78 79 79 78 76 77 77 75 73 72 72
87 80 83 85 93 90 89 84 91 95 93 92 94 97 98 92 78 76 71 70 73 73 70 70 71 71 69 69 72 75 72 71 74 69 69 70 71 75 75 76 77 75 75 74 72 71 69 68 69
79 81 83 80 88 88 87 85 89 91 91 89 90 93 91 80 77 75 75 75 71 70 71 68 68 68 66 70 68 65 65 64 66 69 75 75 75 75 71 71 73 71 71 70 68 65 66 66 64
84 82 79 84 87 83 84 82 85 88 88 87 87 89 77 74 72 72 70 69 69 67 69 67 67 66 69 65 63 63 62 67 67 67 76 74 74 72 71 72 71 69 67 67 66 66 61 63 66
83 80 79 84 86 84 83 82 87 85 84 84 85 87 77 72 69 67 69 67 66 68 68 67 64 64 63 63 62 63 64 70 71 73 72 72 72 71 70 69 67 67 68 67 63 62 62 63 64
82 77 77 77 83 86 83 79 82 84 85 84 84 84 80 74 65 66 66 66 68 67 68 68 67 66 63 62 62 66 67 68 68 72 74 73 72 72 68 66 67 67 67 65 64 62 62 60 62
76 83 81 79 76 70 83 68 78 80 79 79 80 81 81 73 68 68 67 66 65 64 66 67 67 62 63 67 66 63 61 62 65 66 68 71 71 70 71 68 67 65 67 64 64 64 62 62 59
78 84 81 81 78 76 77 72 72 81 69 72 73 69 67 64 60 57 57 58 59 62 59 57 57 57 59 61 60 57 56 63 70 69 66 66 71 73 72 69 66 64 66 64 64 64 63 65 62
85 82 81 81 80 67 72 72 74 68 75 68 62 61 59 58 56 56 57 58 58 60 60 59 57 61 66 67 67 66 66 65 67 68 67 69 72 72 66 67 66 65 64 65 64 63 64 64 62
82 75 65 64 65 65 74 70 70 75 76 72 63 57 57 55 54 54 55 56 56 58 59 63 71 70 71 70 69 68 67 66 65 67 68 66 68 66 65 67 65 66 65 64 64 64 62 64 62
76 74 65 52 57 64 75 63 53 73 70 67 62 57 55 55 56 58 57 58 61 62 66 68 69 66 66 68 69 69 68 69 68 65 66 67 68 66 66 64 64 66 65 65 65 67 62 64 61
74 71 77 65 69 65 69 67 72 71 57 64 63 57 56 59 61 62 64 65 66 67 68 67 66 67 69 68 67 67 65 64 65 63 64 63 67 66 69 68 66 67 65 66 65 63 62 64 64
76 79 66 69 53 52 64 64 60 68 71 67 65 63 62 64 64 65 66 66 66 68 69 69 68 67 68 68 66 65 63 64 64 64 64 66 67 67 67 65 66 67 66 65 64 62 64 64 64
74 72 70 68 66 56 55 59 69 67 70 69 63 64 66 63 63 63 63 67 66 66 68 68 68 67 65 64 64 63 63 66 67 67 67 67 67 67 66 66 66 65 64 64 63 63 64 62 63
76 71 69 59 57 63 60 59 71 70 71 71 66 65 64 59 60 62 62 60 68 67 66 66 63 62 63 64 63 63 66 66 66 67 67 66 65 65 65 66 66 65 65 64 63 62 62 61 60
MSLP
1009.67 1008.80 1007.54 1005.97 1004.58 1001.05 1000.36 1000.88 1002.10 1003.04 1004.27 1006.10 1006.36 1006.94 1008.31 1008.01 1008.39 1009.49 1010.46 1010.69 1010.69 1011.39 1012.86 1013.63 1014.37 1014.62 1014.83 1015.04 1015.25 1015.44 1015.56 1015.66 1015.71 1015.67 1015.82 1015.99 1016.01 1016.02 1016.07 1016.13 1016.14 1016.16 1016.24 1016.32 1016.31 1016.21 1016.16 1016.10 1016.00
1008.41 1007.17 1006.46 1004.30 1001.94 1000.46 1001.54 1001.12 1002.53 1004.37 1006.03 1006.76 1006.98 1007.19 1007.84 1009.30 1009.81 1010.21 1010.90 1010.94 1011.35 1012.28 1012.87 1013.76 1014.56 1014.82 1015.10 1015.42 1015.61 1015.66 1015.75 1015.79 1015.98 1016.00 1015.99 1016.13 1016.36 1016.38 1016.52 1016.61 1016.61 1016.67 1016.65 1016.66 1016.73 1016.69 1016.58 1016.49 1016.44
1008.83 1006.99 1005.55 1002.57 1000.25 999.90 1000.11 1001.77 1003.61 1005.22 1006.37 1005.85 1006.08 1006.52 1006.95 1007.99 1009.69 1010.42 1010.98 1011.63 1011.74 1012.10 1012.70 1014.24 1014.83 1015.11 1015.42 1015.65 1015.84 1015.91 1016.06 1016.16 1016.26 1016.35 1016.43 1016.44 1016.55 1016.67 1016.84 1016.94 1016.95 1016.90 1016.99 1017.06 1017.04 1017.05 1017.00 1016.86 1016.70
1007.00 1005.48 1004.01 1001.12 1000.04 1001.01 1001.23 1002.60 1003.85 1004.86 1005.66 1005.98 1005.63 1006.14 1007.39 1008.15 1008.81 1009.62 1011.00 1011.04 1011.54 1011.90 1012.75 1014.57 1014.92 1015.30 1015.53 1015.82 1016.03 1016.17 1016.19 1016.36 1016.56 1016.69 1016.69 1016.96 1017.06 1017.18 1017.21 1017.23 1017.22 1017.23 1017.33 1017.24 1017.38 1017.39 1017.28 1017.11 1016.98
1006.46 1004.48 1002.01 1000.11 1000.72 1001.48 1002.15 1002.86 1003.66 1004.10 1004.76 1005.14 1004.97 1005.08 1006.92 1008.22 1008.89 1009.89 1010.71 1011.10 1011.30 1011.68 1013.30 1014.37 1015.14 1015.52 1015.70 1015.99 1016.26 1016.51 1016.52 1016.85 1016.96 1017.08 1017.17 1017.28 1017.41 1017.48 1017.47 1017.57 1017.61 1017.63 1017.63 1017.62 1017.56 1017.48 1017.39 1017.38 1017.04
1004.80 1003.13 1000.79 999.62 1000.74 1001.72 1002.46 1002.92 1003.56 1003.45 1004.29 1004.77 1005.03 1005.15 1006.97 1008.56 1009.21 1010.01 1010.58 1010.98 1010.99 1011.86 1013.02 1014.41 1015.32 1015.83 1016.04 1016.35 1016.76 1017.00 1017.12 1017.21 1017.29 1017.50 1017.54 1017.54 1017.62 1017.62 1017.70 1017.81 1017.93 1017.90 1017.92 1017.86 1017.82 1017.67 1017.53 1017.27 1017.12
1004.13 1001.97 1000.29 1000.14 1001.17 1001.43 1002.30 1002.86 1003.26 1003.68 1003.56 1003.88 1004.74 1004.42 1006.89 1008.11 1008.82 1009.53 1010.22 1010.53 1010.92 1011.39 1012.87 1014.07 1014.99 1015.87 1016.39 1016.75 1017.05 1017.23 1017.45 1017.63 1017.74 1017.88 1017.88 1017.77 1017.75 1017.81 1017.94 1018.09 1018.18 1018.23 1018.14 1018.03 1017.90 1017.80 1017.53 1017.11 1016.90
1003.53 1001.84 1000.62 1000.80 1000.78 1001.43 1002.57 1002.86 1003.13 1003.27 1002.69 1003.91 1004.02 1001.77 1004.56 1006.98 1008.53 1009.22 1009.75 1010.32 1010.67 1011.32 1012.35 1013.22 1014.55 1015.31 1016.03 1016.88 1017.45 1017.59 1017.80 1017.92 1017.86 1017.95 1017.88 1017.75 1017.66 1017.75 1017.92 1018.05 1018.23 1018.36 1018.19 1018.11 1017.86 1017.68 1017.18 1016.85 1016.45
1003.83 1001.59 1000.23 1001.00 1001.02 1001.41 1002.42 1002.36 1002.88 1003.42 1003.19 1004.04 1004.21 1004.12 1005.25 1006.96 1008.29 1008.83 1009.45 1010.06 1010.13 1010.86 1012.41 1012.72 1013.87 1014.85 1015.23 1016.66 1017.76 1018.09 1018.22 1018.26 1018.13 1018.14 1018.05 1017.85 1016.72 1017.06 1017.08 1018.04 1018.22 1018.16 1017.87 1017.79 1017.48 1017.20 1016.88 1016.51 1015.84
1002.91 1000.86 1000.43 1001.29 1001.74 1001.47 1001.77 1002.31 1002.16 1003.11 1003.23 1003.18 1004.01 1004.86 1005.86 1007.41 1007.97 1008.47 1009.08 1009.46 1009.71 1010.38 1011.67 1012.21 1013.59 1013.76 1014.60 1015.79 1017.04 1017.27 1017.66 1017.28 1017.20 1017.28 1017.29 1016.85 1017.60 1017.51 1017.10 1017.51 1017.83 1017.78 1017.56 1017.37 1017.00 1016.74 1016.35 1016.04 1015.88
1002.58 1001.20 1001.30 1002.05 1002.44 1002.46 1002.05 1001.99 1002.42 1002.49 1002.10 1002.18 1002.89 1003.71 1005.77 1007.27 1007.76 1008.08 1008.46 1008.75 1009.26 1010.04 1010.68 1011.96 1013.58 1013.73 1014.30 1015.31 1015.93 1016.39 1016.76 1017.22 1017.36 1017.52 1017.44 1017.71 1017.41 1017.36 1016.96 1016.92 1016.81 1016.98 1016.72 1016.66 1016.65 1016.42 1016.15 1016.63 1016.41
1002.69 1002.42 1002.49 1002.21 1002.58 1002.61 1002.15 1001.96 1002.15 1002.35 1001.93 1002.37 1002.20 1002.83 1004.70 1006.71 1007.22 1007.58 1007.78 1008.16 1008.85 1009.76 1010.96 1012.36 1013.70 1014.18 1014.58 1014.94 1015.62 1015.85 1016.00 1016.66 1016.62 1017.39 1017.80 1017.63 1017.07 1017.47 1017.66 1017.34 1017.32 1017.09 1016.83 1017.02 1016.96 1016.83 1016.88 1016.94 1016.54
1002.94 1002.28 1002.73 1002.69 1002.72 1002.64 1002.67 1002.38 1002.15 1001.89 1002.18 1002.42 1002.57 1002.72 1004.20 1006.02 1006.76 1007.24 1007.47 1007.86 1008.62 1009.71 1011.39 1012.83 1014.21 1014.94 1015.49 1015.77 1016.07 1016.29 1016.44 1016.63 1017.08 1017.36 1017.92 1018.09 1017.85 1018.10 1017.74 1017.69 1017.39 1017.25 1017.20 1017.41 1017.50 1017.31 1017.20 1016.91 1016.36
1002.81 1002.84 1002.59 1002.63 1002.65 1002.76 1002.82 1002.10 1002.41 1002.22 1002.51 1002.53 1002.91 1003.06 1003.24 1005.16 1006.04 1006.55 1007.20 1007.71 1008.61 1010.35 1012.45 1013.92 1015.16 1016.03 1016.42 1016.60 1016.89 1017.10 1017.68 1017.88 1017.71 1017.79 1018.44 1018.48 1018.63 1018.64 1018.28 1017.83 1017.54 1017.28 1017.55 1018.00 1017.79 1017.34 1017.15 1016.80 1016.26
1003.40 1003.08 1002.30 1002.48 1002.62 1002.85 1003.46 1002.37 1001.98 1002.87 1003.20 1003.22 1002.84 1003.04 1003.33 1004.69 1005.31 1005.61 1006.11 1007.79 1008.93 1011.95 1014.42 1015.75 1016.56 1017.05 1017.47 1017.47 1017.59 1017.99 1018.36 1017.86 1017.87 1018.13 1018.46 1018.75 1018.72 1018.75 1018.80 1018.00 1017.54 1017.45 1018.24 1018.02 1017.50 1017.17 1016.85 1016.73 1016.52
1003.25 1002.90 1001.82 1001.97 1002.88 1003.22 1003.61 1001.80 1002.67 1003.63 1003.43 1003.28 1003.17 1003.11 1003.66 1004.22 1004.96 1007.67 1008.35 1008.63 1013.00 1014.60 1015.83 1017.45 1017.67 1017.16 1018.08 1017.99 1018.55 1018.69 1019.58 1019.45 1019.12 1018.78 1018.62 1018.99 1019.17 1018.83 1018.87 1018.42 1017.96 1018.30 1018.38 1017.76 1017.41 1017.42 1017.24 1017.17 1016.85
1002.41 1001.82 1001.24 1001.67 1002.75 1003.37 1003.12 1002.49 1002.91 1004.00 1004.03 1003.92 1004.02 1003.82 1004.02 1005.84 1008.59 1009.72 1011.64 1012.16 1014.19 1015.60 1017.38 1018.04 1017.44 1018.73 1018.94 1018.69 1018.98 1019.38 1019.94 1020.00 1019.86 1020.26 1019.74 1019.48 1019.47 1019.23 1018.95 1018.78 1018.39 1018.46 1018.18 1018.13 1018.25 1018.19 1017.95 1017.38 1017.19
1001.27 1001.57 1001.51 1002.42 1002.92 1003.72 1003.03 1003.02 1003.49 1004.49 1004.75 1004.74 1005.01 1005.32 1006.02 1008.50 1010.56 1012.11 1012.68 1013.78 1015.09 1017.06 1018.05 1018.71 1018.39 1019.05 1019.23 1019.05 1019.71 1019.90 1020.02 1020.10 1019.65 1019.72 1019.08 1019.09 1019.08 1019.29 1019.55 1019.32 1018.81 1018.84 1018.34 1018.55 1018.67 1018.79 1018.28 1018.14 1017.97
1003.25 1003.02 1002.91 1002.89 1003.91 1004.49 1003.58 1003.96 1004.03 1005.04 1005.44 1005.80 1006.34 1006.54 1009.20 1011.26 1013.36 1014.45 1015.57 1016.26 1017.17 1018.03 1018.65 1018.92 1019.09 1019.53 1019.72 1019.77 1020.08 1020.34 1020.62 1019.79 1020.02 1019.62 1019.09 1018.62 1019.07 1019.41 1019.61 1019.16 1018.99 1018.87 1018.94 1019.01 1018.81 1018.49 1018.51 1018.24 1017.80
1003.93 1003.48 1003.24 1003.68 1004.07 1004.30 1003.75 1003.52 1003.68 1005.35 1006.36 1007.23 1007.43 1007.97 1010.60 1013.15 1014.98 1016.21 1016.91 1017.46 1017.98 1018.40 1018.90 1019.30 1019.56 1019.83 1019.98 1020.25 1020.30 1020.26 1020.47 1019.73 1019.38 1019.54 1018.96 1019.02 1019.16 1019.36 1019.60 1019.47 1019.56 1019.23 1019.07 1018.76 1018.95 1018.75 1018.64 1018.22 1017.68
1003.84 1004.55 1004.76 1004.66 1004.40 1003.84 1002.79 1003.10 1003.46 1005.66 1006.83 1008.10 1009.04 1010.29 1011.63 1014.01 1016.01 1017.03 1017.80 1018.25 1018.71 1019.17 1019.36 1019.56 1020.05 1020.41 1020.68 1020.48 1020.06 1020.05 1019.84 1019.68 1019.39 1018.78 1018.42 1018.33 1018.99 1019.15 1019.27 1019.56 1019.59 1019.17 1018.97 1018.64 1018.91 1018.82 1018.73 1018.29 1017.71
1004.60 1005.47 1005.52 1005.09 1004.59 1003.54 1003.56 1002.99 1003.08 1005.24 1006.98 1008.59 1009.90 1011.64 1013.05 1015.30 1017.06 1017.70 1018.52 1019.13 1019.55 1020.01 1020.05 1020.37 1020.59 1020.61 1020.47 1020.42 1020.21 1020.09 1020.10 1019.85 1019.31 1019.08 1018.60 1018.65 1018.63 1018.60 1018.55 1019.05 1019.39 1019.38 1019.14 1018.99 1018.82 1018.84 1018.47 1018.29 1017.63
1005.71 1006.18 1005.61 1004.91 1004.11 1003.52 1002.52 1003.37 1004.20 1005.61 1008.46 1008.65 1011.85 1014.63 1016.59 1018.03 1018.89 1019.66 1020.19 1020.60 1021.04 1021.11 1021.38 1021.52 1021.53 1021.47 1021.35 1020.84 1020.66 1020.70 1020.55 1020.06 1019.18 1018.93 1018.65 1018.61 1018.11 1017.76 1017.95 1018.87 1019.19 1019.22 1019.13 1018.72 1018.57 1018.42 1018.25 1018.01 1017.70
1006.59 1006.10 1005.56 1004.09 1002.91 1002.72 1003.32 1004.38 1004.63 1007.34 1008.59 1011.90 1014.42 1016.71 1018.51 1019.74 1020.63 1021.16 1021.42 1021.44 1021.39 1021.44 1021.72 1021.75 1021.49 1021.05 1020.99 1020.80 1020.52 1020.21 1019.71 1019.69 1019.43 1018.89 1018.78 1018.19 1017.75 1017.65 1018.38 1018.58 1018.81 1019.10 1018.83 1018.29 1018.42 1018.17 1017.99 1017.82 1017.67
1006.56 1006.29 1005.36 1003.97 1003.54 1003.28 1004.37 1005.35 1006.36 1008.32 1010.18 1012.19 1015.30 1018.18 1019.77 1020.80 1021.37 1021.96 1022.06 1021.97 1021.99 1021.80 1021.46 1020.97 1020.43 1020.53 1020.57 1020.08 1020.00 1019.94 1019.80 1019.67 1019.32 1018.74 1018.39 1018.44 1017.94 1017.78 1018.06 1018.32 1018.59 1018.53 1018.37 1018.25 1018.19 1017.82 1017.56 1017.60 1017.46
1007.37 1007.21 1006.54 1005.98 1005.68 1005.28 1004.93 1005.76 1009.39 1011.24 1014.03 1014.27 1017.03 1019.08 1020.47 1021.24 1021.72 1021.92 1022.05 1021.87 1021.61 1021.42 1021.13 1020.92 1020.85 1020.82 1020.47 1019.94 1019.82 1019.71 1019.47 1019.14 1019.01 1018.90 1018.94 1018.66 1018.08 1017.87 1017.93 1018.30 1018.15 1017.99 1017.84 1017.80 1017.52 1017.27 1017.63 1017.47 1017.36
1007.99 1007.46 1007.82 1007.84 1006.66 1005.86 1005.54 1007.69 1010.00 1012.34 1015.24 1015.66 1017.44 1019.19 1020.06 1021.05 1021.38 1021.45 1021.44 1021.45 1021.47 1021.34 1020.97 1021.11 1020.85 1020.41 1020.25 1020.04 1019.91 1019.75 1019.72 1019.55 1019.27 1019.26 1019.02 1018.58 1018.21 1017.85 1017.58 1017.63 1017.55 1017.32 1017.21 1017.26 1017.41 1017.43 1017.40 1017.12 1017.02
1008.57 1008.92 1008.27 1007.93 1007.90 1007.47 1007.10 1007.93 1010.29 1011.64 1013.15 1015.00 1016.73 1018.17 1019.53 1020.39 1020.90 1021.11 1021.24 1021.40 1021.42 1020.96 1020.58 1020.58 1020.45 1020.37 1020.10 1019.98 1019.98 1019.88 1019.54 1019.25 1019.05 1018.84 1018.74 1018.26 1018.00 1017.78 1017.70 1017.55 1017.28 1016.93 1016.97 1017.12 1017.30 1017.31 1017.20 1016.95 1016.77
1008.81 1008.31 1009.36 1009.99 1009.74 1009.09 1009.09 1009.83 1012.24 1012.92 1013.38 1014.30 1016.85 1018.13 1019.34 1020.43 1021.06 1021.38 1021.53 1021.58 1021.42 1021.09 1020.54 1020.62 1020.48 1020.45 1020.28 1020.28 1020.06 1019.92 1019.45 1018.98 1018.66 1018.49 1018.27 1017.99 1017.84 1017.54 1017.41 1017.25 1016.96 1016.99 1017.03 1017.08 1017.12 1017.04 1016.85 1016.67 1016.51
1009.85 1009.67 1010.35 1010.74 1010.81 1011.06 1011.46 1011.80 1013.43 1014.08 1014.48 1015.32 1017.43 1018.99 1020.24 1021.38 1021.74 1021.80 1021.79 1021.72 1020.73 1020.85 1021.01 1020.80 1020.95 1021.05 1020.85 1020.50 1020.17 1019.72 1019.06 1019.09 1018.77 1018.40 1018.25 1018.19 1018.02 1017.76 1017.43 1017.07 1016.85 1016.87 1016.76 1016.87 1016.89 1016.64 1016.58 1016.55 1016.40
Wind_Speed
12 14 11 10 11 6 14 15 4 13 10 6 6 9 5 14 10 6 7 7 10 16 14 13 10 11 11 11 11 12 12 13 13 14 14 13 13 13 12 13 14 15 16 16 15 15 15 14 14
16 9 9 10 16 5 9 8 16 13 12 8 5 6 5 3 5 9 8 8 14 13 11 13 11 11 12 11 11 11 12 13 13 13 14 14 13 14 15 15 15 15 15 15 15 14 14 14 13
15 12 11 17 10 11 11 14 13 13 10 3 7 6 4 9 9 10 13 12 13 12 14 14 12 12 12 12 12 12 12 13 13 14 14 16 16 16 15 14 14 15 15 15 14 14 14 14 13
8 11 12 12 6 14 10 11 13 9 6 1 3 10 4 6 9 12 17 14 13 14 17 14 13 12 12 13 13 12 13 13 14 14 15 15 16 15 14 14 13 14 14 14 14 13 13 13 13
10 11 16 8 7 9 2 11 6 5 7 8 6 12 12 8 12 17 15 13 13 15 16 15 12 12 13 13 13 12 13 13 14 15 15 16 15 14 14 13 14 13 12 12 11 11 11 11 11
12 14 16 6 12 6 3 8 4 3 5 12 3 12 11 12 16 16 15 13 14 16 16 15 13 11 11 11 12 13 13 14 14 14 14 15 13 13 13 12 11 11 11 11 11 12 12 11 11
18 13 10 9 8 8 6 3 8 5 7 12 5 7 11 15 15 16 15 14 12 16 16 15 14 13 12 12 13 13 14 14 13 13 12 13 12 11 11 11 10 10 10 10 11 11 11 12 12
13 15 4 3 4 13 8 5 2 6 8 11 7 10 20 14 16 15 15 14 13 14 16 15 14 14 14 14 13 14 13 13 12 11 11 12 13 12 10 13 10 7 6 5 5 6 9 13 14
14 13 10 6 6 10 9 7 9 4 4 6 7 9 15 19 17 16 13 13 13 12 14 13 15 14 15 14 12 12 12 12 10 8 7 9 3 4 11 8 4 2 2 2 4 5 11 12 15
15 11 10 8 6 8 5 5 9 7 9 10 8 10 13 18 17 17 15 14 15 14 20 15 13 14 14 12 13 10 10 7 3 3 2 1 3 3 6 3 8 5 8 9 9 8 12 12 13
14 8 11 4 5 9 10 5 1 6 11 13 15 18 16 15 17 16 16 16 15 14 11 17 10 7 12 12 8 6 4 4 4 1 6 4 5 6 6 5 4 7 2 9 11 12 11 15 13
10 4 3 8 4 5 8 4 3 7 15 10 10 16 19 17 17 16 16 15 16 16 14 16 12 9 5 8 6 4 4 3 5 7 5 2 4 6 6 6 9 8 8 11 12 10 13 15 17
13 6 3 4 2 1 3 6 7 6 8 9 6 13 18 17 17 16 15 16 16 16 15 15 12 7 6 2 7 3 4 1 7 2 5 6 7 6 8 6 7 8 9 11 11 12 12 15 17
6 5 2 4 3 4 9 9 2 3 10 14 5 10 16 16 18 18 17 15 16 18 14 15 13 9 7 7 6 4 5 2 3 3 7 9 8 7 8 9 8 8 9 11 11 12 12 13 15
8 13 13 8 2 5 9 17 7 11 6 10 14 14 10 14 17 19 21 8 12 17 17 13 12 10 7 8 6 8 6 5 5 8 6 5 7 8 9 10 9 8 9 12 11 12 13 14 15
13 16 14 13 1 8 8 6 11 8 9 9 13 12 12 15 13 22 18 28 19 15 10 5 6 11 8 10 6 7 3 4 2 3 4 11 9 10 9 10 10 10 10 11 12 13 13 14 14
11 14 17 10 8 7 8 16 14 9 10 10 10 12 11 12 22 22 21 14 19 15 9 7 13 11 10 7 6 3 5 6 8 6 5 5 6 11 8 9 10 10 11 11 11 11 14 13 13
4 3 4 6 10 12 14 11 7 7 9 8 5 10 14 22 21 17 18 17 17 12 12 10 9 10 3 6 4 1 2 0 4 3 6 8 7 9 8 8 9 8 8 10 9 10 11 12 10
6 7 6 8 8 10 16 9 2 4 6 9 8 2 19 21 18 15 14 12 12 11 12 11 9 7 4 2 2 2 2 4 4 2 9 5 6 6 8 9 9 9 9 11 9 10 11 9 10
6 8 9 8 3 8 14 10 8 3 8 11 11 10 16 14 14 12 13 12 10 11 12 10 7 4 3 2 2 2 3 6 6 10 6 4 4 6 8 9 8 10 11 9 8 8 9 9 7
5 7 11 14 15 17 13 15 14 11 10 11 14 11 19 12 11 8 10 10 11 11 10 8 6 4 4 2 1 3 6 7 8 8 4 2 5 8 4 5 8 9 8 6 7 6 9 9 10
7 11 13 15 15 14 18 12 14 14 14 13 15 12 14 14 9 9 10 9 10 12 11 7 6 7 6 6 5 6 5 8 5 7 5 4 6 7 9 3 7 6 6 5 6 7 7 8 10
14 12 15 19 20 16 13 8 14 9 18 16 16 18 15 17 16 14 12 11 10 10 7 6 7 8 6 7 5 3 5 7 8 5 5 5 10 9 6 2 5 6 6 6 6 8 8 7 7
11 16 20 23 18 13 14 5 4 12 3 17 16 14 12 13 12 12 11 9 9 7 4 3 4 1 3 4 4 7 8 8 9 9 9 9 7 7 5 2 4 6 6 7 8 6 6 7 7
18 16 12 7 9 9 5 6 14 13 14 19 17 12 11 11 10 9 8 7 4 3 5 4 4 3 5 7 8 10 9 9 11 9 8 8 7 3 3 5 5 7 7 8 8 6 5 7 6
21 10 9 12 13 14 18 7 1 16 16 20 17 13 11 9 6 6 4 6 6 3 4 10 12 12 8 9 9 8 7 7 7 5 6 8 7 6 4 4 6 8 6 7 7 7 4 6 4
10 11 15 11 19 14 7 16 12 17 11 12 15 13 11 9 8 7 5 8 7 7 6 7 7 9 10 10 8 8 6 6 7 6 5 6 6 5 7 8 9 9 6 8 7 6 5 7 3
5 7 9 6 10 10 12 8 8 11 11 16 13 14 12 9 7 7 6 10 9 9 9 11 10 11 11 9 6 7 5 4 5 5 7 8 8 9 9 9 10 9 8 6 6 6 5 5 6
12 9 8 9 8 10 11 7 11 11 13 14 14 12 11 10 8 13 12 10 9 8 10 12 12 12 9 8 8 7 5 6 7 8 9 10 11 10 10 10 10 9 6 5 5 6 7 7 6
8 4 6 8 11 11 11 4 11 12 14 15 14 11 11 13 10 10 8 6 9 13 12 11 11 10 8 8 7 8 6 9 11 10 10 10 10 11 10 9 7 5 4 4 6 6 6 6 9
Wind_Direction
244 231 239 257 247 274 3 83 315 47 64 35 19 21 45 29 8 51 125 138 118 105 116 133 120 122 123 120 118 117 112 108 109 108 105 101 99 93 87 82 79 76 74 69 63 58 51 44 37
289 270 249 272 249 128 196 68 61 63 92 90 118 154 128 98 68 109 118 107 84 111 122 130 126 125 127 125 125 123 119 118 116 111 108 102 93 91 87 83 80 76 73 67 59 52 46 38 29
259 258 269 247 257 26 54 68 86 99 128 191 109 357 123 91 117 141 123 149 141 127 113 113 120 124 132 134 133 126 122 122 118 111 104 102 98 94 89 85 80 77 70 61 55 47 38 32 25
262 225 244 254 3 64 33 79 107 134 126 242 91 125 128 43 131 134 156 152 137 141 115 127 130 137 139 141 138 130 124 122 113 106 103 101 98 94 87 83 79 74 66 61 51 42 34 26 17
235 261 251 259 73 82 46 106 133 140 102 135 243 117 78 94 110 132 144 148 147 132 122 131 137 144 145 142 135 127 123 114 107 104 106 103 98 95 90 82 76 71 65 55 47 36 25 12 6
238 245 261 203 89 115 73 128 182 42 127 104 255 113 89 119 133 143 151 157 154 130 139 137 139 141 130 129 122 114 110 108 107 107 107 108 104 98 91 86 77 67 55 45 32 22 9 356 346
252 236 270 24 84 135 90 156 166 173 146 143 124 122 111 157 145 152 155 155 140 138 125 141 146 133 119 119 118 110 106 105 107 107 109 106 103 105 102 89 68 52 45 38 26 11 350 331 316
269 272 261 238 197 94 99 171 182 265 152 82 243 131 158 155 152 152 158 146 166 139 151 149 139 149 150 141 112 108 111 110 108 121 132 138 138 142 127 131 64 52 45 38 26 347 329 311 299
249 263 185 135 261 116 134 217 124 184 286 213 176 23 118 135 161 157 154 163 162 162 133 154 148 162 140 132 115 114 116 125 130 150 179 187 52 180 120 102 141 142 221 231 276 283 287 285 301
238 256 80 60 19 311 145 251 122 191 201 184 179 104 129 147 168 167 169 175 169 175 143 146 147 161 132 126 164 144 152 161 121 77 347 82 38 4 331 144 179 196 262 223 260 243 262 353 338
234 337 63 152 16 323 304 182 193 216 235 205 186 152 149 170 176 179 182 180 173 175 149 129 150 150 149 143 164 161 153 154 143 66 352 66 341 13 354 5 0 360 311 354 340 335 347 343 333
266 358 10 8 328 280 253 350 203 239 282 360 199 167 149 182 182 192 189 181 168 166 143 125 155 155 50 120 206 125 176 176 224 72 327 28 323 10 350 10 332 350 357 345 350 338 340 333 326
246 142 243 68 221 248 18 254 286 275 240 176 295 160 155 186 193 197 194 184 174 151 140 133 124 119 117 169 72 321 13 12 31 245 74 4 333 15 341 340 327 336 353 351 341 330 336 322 325
211 294 238 232 94 187 270 274 225 251 9 308 179 274 160 194 201 197 198 194 171 124 135 112 99 89 105 66 40 36 32 13 286 340 32 342 344 8 336 319 340 344 4 346 326 327 324 324 322
261 245 198 204 339 62 320 263 204 18 326 286 291 216 190 202 216 210 189 136 101 105 94 111 116 117 92 82 61 37 14 337 14 13 25 355 352 343 336 326 334 352 348 324 319 328 327 329 325
242 236 280 110 267 126 250 298 72 9 333 304 300 275 218 212 211 29 39 82 81 96 108 100 115 93 99 76 49 63 33 339 327 304 335 1 352 336 334 334 340 2 327 318 332 338 328 321 321
200 255 223 143 105 307 228 302 64 24 347 340 319 293 258 81 58 68 90 102 118 115 93 101 93 93 72 66 82 46 36 360 15 351 346 345 329 324 346 326 330 346 318 336 335 325 323 324 323
14 244 237 245 56 341 303 314 31 8 349 355 349 317 46 61 60 67 70 85 97 103 107 98 90 89 77 100 68 48 254 199 203 269 328 314 344 339 355 323 336 330 330 329 330 321 327 321 304
352 319 306 30 55 297 303 299 271 353 12 16 359 47 61 70 66 71 85 99 98 103 117 114 100 54 52 57 16 340 343 347 308 323 280 354 318 328 325 318 333 339 338 321 327 332 325 316 318
299 300 22 309 199 272 283 282 213 104 56 46 25 46 88 84 87 90 99 98 109 126 131 118 114 127 104 91 147 150 308 298 321 300 287 291 302 323 302 343 333 327 310 330 348 330 315 309 316
199 356 349 321 314 287 290 260 150 134 92 80 77 46 92 86 93 111 123 134 121 135 134 130 87 44 39 37 10 297 296 285 258 250 232 315 307 295 352 333 311 327 309 348 324 306 322 314 320
324 15 325 309 305 304 315 298 189 148 133 96 80 67 64 86 107 111 126 112 87 52 33 37 1 2 2 326 337 335 297 297 326 303 290 303 289 282 269 317 330 319 314 306 331 308 321 315 313
351 321 292 292 285 279 303 229 138 177 79 87 74 60 61 61 60 58 56 56 53 58 49 45 28 12 357 3 2 359 303 266 277 321 319 286 282 282 303 339 307 292 296 310 294 313 330 318 319
292 308 310 275 256 248 120 301 316 130 112 101 87 74 69 67 68 64 56 50 50 50 68 140 173 90 279 271 277 271 294 313 306 315 307 289 324 299 104 263 272 292 279 300 310 314 307 319 323
352 312 314 323 335 318 106 284 53 66 63 99 98 87 73 73 73 80 89 87 86 330 291 263 340 341 332 342 332 325 315 312 292 300 308 337 297 18 91 292 296 289 301 294 294 297 312 326 347
298 340 296 334 313 313 279 357 328 76 62 89 93 94 89 91 114 117 162 187 184 212 353 5 3 349 333 334 330 318 319 306 302 21 340 302 315 311 10 260 277 284 269 280 297 294 337 326 341
344 312 341 285 259 263 326 100 58 47 99 97 106 108 105 112 105 116 87 53 31 360 14 351 337 334 337 340 317 318 335 320 323 304 300 299 293 308 293 303 289 291 280 292 296 307 309 303 5
278 317 340 321 319 308 312 2 44 18 23 120 114 108 119 135 120 83 66 28 357 353 358 359 343 342 326 328 346 320 291 272 269 270 285 286 297 294 296 295 286 289 304 314 310 312 291 300 321
316 316 4 310 279 320 306 25 49 20 23 79 95 94 96 76 52 28 14 4 346 333 341 346 342 332 354 348 340 303 312 302 312 318 311 319 313 299 296 290 301 307 321 303 300 298 278 292 301
289 302 354 323 316 321 289 323 53 30 44 65 81 87 79 45 18 5 346 317 327 3 345 326 6 350 326 308 281 280 335 337 321 322 325 324 316 315 309 307 303 305 293 308 305 330 324 303 301